SL-4 R/B

Last updated on Mon Sep 21 2026 00:02:09 GMT+0000 (Coordinated Universal Time)

1 39679U 14021B 26263.27739545 .00010664 00000+0 20863-3 0 9991 2 39679 51.6038 104.2784 0087214 95.4279 265.6664 15.43966820686293
UTC large
Height (km)
Speed (km/s)
/
Latitude / Longitude
Inclination (degrees)
Orbital Period (minutes)
Azimuth
Elevation
Range (km)
Doppler Factor

Next 0 passes for location: London (51.5072 / 0.1276)

No passes found over London.
SL-4 R/B